Total_Precipitation_Accumulation
0.00 0.00 0.00 0.00 0.00 0.00 0.00 0.00 0.00 0.00 0.00 0.00 0.00 0.00 0.00 0.00 0.00 0.00 0.00 0.00 0.00 0.00 0.00 0.00 0.00 0.00 0.00 0.01 0.01 0.03 0.01 0.08 0.05 0.20 0.44 0.06 0.13 0.10 0.04 0.17 0.15 0.19 0.20 0.13 0.04 0.04 0.03 0.03 0.01 0.02 0.00 0.01 0.00 0.00 0.00 0.00 0.00 0.01 0.01 0.01 0.02 0.01 0.01 0.01 0.01 0.01 0.01 0.01 0.03 0.02 0.02 0.02 0.02 0.02 0.04 0.04 0.09 0.03 0.04 0.13 0.09 0.15 0.22 0.25 0.15 0.14 0.10 0.10 0.11 0.15 0.18 0.12 0.10 0.18 0.16 0.11 0.07
0.00 0.00 0.00 0.00 0.00 0.00 0.00 0.00 0.00 0.00 0.00 0.00 0.00 0.00 0.00 0.00 0.00 0.00 0.00 0.00 0.00 0.00 0.00 0.00 0.00 0.00 0.00 0.00 0.00 0.00 0.04 0.04 0.02 0.04 0.26 0.18 0.09 0.07 0.22 0.43 0.68 0.51 0.25 0.17 0.10 0.05 0.04 0.07 0.02 0.01 0.02 0.01 0.01 0.00 0.00 0.00 0.00 0.01 0.02 0.01 0.00 0.01 0.01 0.00 0.01 0.01 0.01 0.01 0.02 0.03 0.03 0.03 0.03 0.04 0.05 0.07 0.04 0.06 0.04 0.12 0.17 0.16 0.22 0.14 0.14 0.15 0.14 0.14 0.12 0.11 0.12 0.12 0.10 0.12 0.08 0.08 0.08
0.00 0.00 0.00 0.00 0.00 0.00 0.00 0.00 0.00 0.00 0.00 0.00 0.00 0.00 0.00 0.00 0.00 0.00 0.00 0.00 0.00 0.00 0.00 0.00 0.00 0.00 0.00 0.00 0.00 0.04 0.75 0.10 0.07 0.07 0.18 0.19 0.12 0.43 0.22 0.35 0.66 0.64 0.55 0.22 0.14 0.04 0.04 0.05 0.01 0.02 0.02 0.01 0.01 0.01 0.01 0.01 0.01 0.01 0.02 0.01 0.02 0.01 0.02 0.01 0.01 0.02 0.02 0.01 0.02 0.03 0.04 0.04 0.05 0.08 0.05 0.04 0.03 0.04 0.04 0.08 0.20 0.18 0.12 0.13 0.13 0.11 0.13 0.24 0.18 0.18 0.10 0.07 0.07 0.10 0.05 0.04 0.04
0.00 0.00 0.00 0.00 0.00 0.00 0.00 0.00 0.00 0.00 0.00 0.00 0.00 0.00 0.00 0.00 0.00 0.00 0.00 0.00 0.00 0.00 0.00 0.00 0.01 0.00 0.00 0.00 0.08 0.00 0.06 0.08 0.06 0.03 0.15 0.14 0.14 0.17 0.29 0.62 0.78 0.31 0.18 0.16 0.19 0.05 0.03 0.07 0.01 0.02 0.02 0.02 0.01 0.02 0.02 0.01 0.01 0.01 0.02 0.02 0.01 0.01 0.01 0.01 0.01 0.01 0.01 0.02 0.02 0.04 0.05 0.08 0.06 0.05 0.09 0.08 0.05 0.04 0.05 0.07 0.12 0.19 0.09 0.07 0.16 0.15 0.12 0.15 0.13 0.28 0.13 0.06 0.04 0.05 0.05 0.05 0.03
0.00 0.00 0.00 0.00 0.00 0.00 0.00 0.00 0.00 0.00 0.00 0.00 0.00 0.00 0.00 0.00 0.00 0.00 0.00 0.00 0.00 0.00 0.00 0.00 0.01 0.00 0.00 0.01 0.00 0.06 0.15 0.04 0.07 0.06 0.06 0.09 0.14 0.24 0.29 0.45 0.47 0.19 0.21 0.18 0.13 0.06 0.09 0.07 0.03 0.01 0.01 0.03 0.02 0.02 0.02 0.02 0.02 0.02 0.02 0.02 0.02 0.01 0.01 0.01 0.02 0.02 0.02 0.03 0.04 0.05 0.06 0.07 0.08 0.11 0.11 0.09 0.08 0.04 0.03 0.05 0.07 0.12 0.07 0.05 0.03 0.02 0.02 0.03 0.11 0.05 0.05 0.06 0.05 0.04 0.03 0.01 0.02
0.00 0.00 0.00 0.00 0.00 0.00 0.00 0.00 0.00 0.00 0.00 0.00 0.00 0.00 0.00 0.00 0.00 0.00 0.00 0.00 0.00 0.00 0.00 0.00 0.01 0.01 0.01 0.18 0.06 0.09 0.10 0.16 0.05 0.06 0.06 0.19 0.39 0.39 0.37 0.50 0.43 0.14 0.19 0.19 0.13 0.06 0.09 0.04 0.02 0.01 0.01 0.02 0.02 0.02 0.02 0.04 0.02 0.03 0.02 0.03 0.01 0.02 0.01 0.02 0.03 0.02 0.03 0.04 0.06 0.07 0.07 0.10 0.08 0.13 0.09 0.09 0.05 0.06 0.05 0.07 0.03 0.03 0.08 0.07 0.04 0.09 0.03 0.03 0.05 0.02 0.03 0.02 0.02 0.02 0.01 0.00 0.00
0.00 0.00 0.00 0.00 0.00 0.00 0.00 0.00 0.00 0.00 0.00 0.00 0.00 0.00 0.00 0.00 0.00 0.00 0.00 0.00 0.00 0.00 0.00 0.00 0.00 0.00 0.06 0.02 0.02 0.06 0.09 0.02 0.12 0.05 0.08 0.15 0.34 0.66 0.81 0.91 0.45 0.18 0.20 0.14 0.15 0.11 0.09 0.03 0.02 0.01 0.01 0.02 0.03 0.03 0.04 0.03 0.04 0.04 0.03 0.03 0.02 0.02 0.03 0.03 0.02 0.05 0.04 0.05 0.06 0.05 0.08 0.09 0.08 0.10 0.15 0.13 0.07 0.18 0.06 0.05 0.06 0.11 0.09 0.06 0.03 0.03 0.03 0.04 0.04 0.03 0.01 0.02 0.01 0.00 0.00 0.00 0.00
0.00 0.00 0.00 0.00 0.00 0.00 0.00 0.00 0.00 0.00 0.00 0.00 0.00 0.00 0.00 0.00 0.00 0.00 0.00 0.00 0.00 0.00 0.00 0.00 0.00 0.00 0.65 0.03 0.34 0.05 0.04 0.03 0.05 0.03 0.05 0.25 0.50 0.42 0.69 1.14 0.86 0.23 0.21 0.18 0.12 0.09 0.33 0.08 0.09 0.10 0.02 0.01 0.04 0.04 0.04 0.04 0.04 0.04 0.02 0.03 0.03 0.02 0.04 0.02 0.03 0.04 0.04 0.09 0.06 0.11 0.12 0.07 0.08 0.10 0.09 0.10 0.13 0.06 0.10 0.03 0.07 0.09 0.07 0.05 0.02 0.02 0.02 0.03 0.01 0.00 0.01 0.01 0.03 0.01 0.00 0.00 0.00
0.00 0.00 0.00 0.00 0.00 0.00 0.00 0.00 0.00 0.00 0.00 0.00 0.00 0.00 0.00 0.00 0.00 0.00 0.00 0.00 0.00 0.00 0.00 0.00 0.00 0.14 0.19 0.09 0.13 0.07 0.10 0.06 0.04 0.03 0.07 0.22 0.25 0.37 0.88 0.73 0.32 0.20 0.27 0.31 0.30 0.24 0.18 0.14 0.29 0.24 0.13 0.16 0.48 0.06 0.04 0.04 0.03 0.05 0.05 0.03 0.03 0.01 0.02 0.03 0.04 0.04 0.05 0.07 0.07 0.11 0.19 0.10 0.05 0.08 0.06 0.11 0.04 0.05 0.13 0.07 0.03 0.06 0.03 0.02 0.02 0.02 0.01 0.01 0.01 0.01 0.01 0.01 0.02 0.00 0.00 0.00 0.00
0.00 0.00 0.00 0.00 0.00 0.00 0.00 0.00 0.00 0.00 0.00 0.00 0.00 0.00 0.00 0.00 0.00 0.00 0.00 0.00 0.00 0.00 0.00 0.00 0.00 0.02 0.09 0.34 0.22 0.15 0.19 0.16 0.05 0.06 0.17 0.17 0.45 0.62 0.35 0.37 0.20 0.19 0.30 0.36 0.42 0.33 0.21 0.41 0.25 0.41 0.28 0.23 0.17 0.04 0.05 0.02 0.02 0.02 0.04 0.04 0.02 0.01 0.03 0.03 0.02 0.02 0.07 0.10 0.06 0.06 0.09 0.13 0.05 0.06 0.03 0.06 0.04 0.05 0.08 0.07 0.03 0.08 0.05 0.03 0.03 0.02 0.02 0.06 0.02 0.03 0.02 0.01 0.01 0.01 0.00 0.00 0.00
0.00 0.00 0.00 0.00 0.00 0.00 0.00 0.00 0.00 0.00 0.00 0.00 0.00 0.00 0.00 0.00 0.00 0.00 0.00 0.00 0.00 0.00 0.00 0.00 0.00 0.02 0.01 0.37 0.52 0.22 0.07 0.12 0.10 0.12 0.17 0.36 0.54 0.22 0.28 0.26 0.22 0.23 0.58 0.72 0.42 0.32 0.36 0.40 0.48 0.40 0.29 0.22 0.07 0.06 0.05 0.02 0.04 0.02 0.02 0.02 0.02 0.03 0.03 0.01 0.03 0.03 0.05 0.07 0.08 0.06 0.06 0.06 0.05 0.07 0.03 0.09 0.03 0.04 0.07 0.07 0.03 0.07 0.04 0.02 0.02 0.01 0.01 0.02 0.04 0.03 0.01 0.01 0.00 0.00 0.00 0.00 0.00
0.00 0.00 0.00 0.00 0.00 0.00 0.00 0.00 0.00 0.00 0.00 0.00 0.00 0.00 0.00 0.00 0.00 0.00 0.00 0.00 0.00 0.00 0.01 0.00 0.01 0.00 0.12 0.20 0.48 0.45 0.22 0.15 0.14 0.13 0.31 0.43 0.51 0.38 0.28 0.34 0.63 0.34 0.33 0.34 0.33 0.37 0.31 0.36 0.39 0.64 0.43 0.68 0.09 0.06 0.05 0.05 0.04 0.02 0.02 0.04 0.02 0.03 0.02 0.01 0.02 0.03 0.04 0.09 0.06 0.03 0.03 0.06 0.05 0.06 0.06 0.08 0.03 0.03 0.08 0.07 0.10 0.08 0.05 0.04 0.01 0.01 0.01 0.00 0.00 0.02 0.03 0.00 0.00 0.00 0.00 0.00 0.00
0.00 0.00 0.00 0.00 0.00 0.00 0.00 0.00 0.00 0.00 0.00 0.00 0.00 0.00 0.00 0.00 0.00 0.00 0.00 0.00 0.00 0.00 0.00 0.00 0.00 0.00 0.48 0.40 0.44 0.44 0.24 0.29 0.16 0.28 0.36 0.37 0.54 0.63 0.38 0.48 0.41 0.43 0.70 0.69 0.47 0.43 0.54 0.32 0.44 0.51 0.69 0.57 0.45 0.16 0.10 0.09 0.09 0.07 0.03 0.05 0.07 0.05 0.05 0.03 0.04 0.06 0.07 0.10 0.04 0.02 0.04 0.04 0.03 0.08 0.06 0.03 0.02 0.07 0.08 0.07 0.10 0.04 0.03 0.02 0.01 0.01 0.00 0.01 0.01 0.01 0.04 0.07 0.00 0.00 0.00 0.00 0.00
0.00 0.00 0.00 0.00 0.00 0.00 0.00 0.00 0.00 0.00 0.00 0.00 0.00 0.00 0.00 0.00 0.00 0.00 0.00 0.00 0.00 0.00 0.00 0.00 0.01 0.04 0.47 0.26 0.70 0.40 0.35 0.32 0.20 0.43 0.41 0.34 0.41 0.65 1.18 0.76 0.74 1.44 0.71 0.77 0.57 0.71 0.50 0.36 0.32 0.39 0.62 0.69 0.70 0.71 0.24 0.13 0.08 0.07 0.03 0.05 0.02 0.03 0.03 0.06 0.05 0.04 0.09 0.04 0.04 0.03 0.02 0.03 0.04 0.05 0.02 0.02 0.03 0.03 0.04 0.04 0.04 0.03 0.06 0.02 0.01 0.00 0.00 0.00 0.01 0.02 0.02 0.04 0.00 0.00 0.00 0.00 0.00
0.00 0.00 0.00 0.00 0.00 0.00 0.00 0.00 0.00 0.00 0.00 0.00 0.00 0.00 0.00 0.00 0.00 0.00 0.00 0.00 0.00 0.00 0.00 0.00 0.01 0.06 2.08 0.19 0.63 0.19 0.24 0.29 0.22 0.37 0.88 0.62 0.49 0.53 0.78 0.88 1.62 0.88 0.78 0.72 0.67 0.51 0.44 0.46 0.50 0.52 0.72 0.74 1.34 1.33 0.96 0.60 0.12 0.12 0.04 0.07 0.05 0.04 0.07 0.08 0.07 0.03 0.08 0.15 0.04 0.08 0.04 0.08 0.10 0.09 0.04 0.02 0.02 0.05 0.04 0.02 0.03 0.03 0.02 0.01 0.00 0.01 0.00 0.00 0.00 0.00 0.00 0.01 0.00 0.00 0.00 0.00 0.00
0.00 0.00 0.00 0.00 0.00 0.00 0.00 0.00 0.00 0.00 0.00 0.00 0.00 0.00 0.00 0.00 0.00 0.00 0.00 0.00 0.00 0.00 0.00 0.07 0.00 0.08 0.13 0.06 0.27 0.13 0.15 0.28 0.24 0.65 0.97 1.61 1.18 0.96 0.98 1.22 0.85 0.70 0.86 1.35 0.98 0.94 0.64 0.68 0.82 0.89 0.73 0.88 1.32 1.07 1.13 1.27 0.85 0.58 0.30 0.07 0.13 0.10 0.19 0.13 0.08 0.05 0.13 0.11 0.17 0.18 0.25 0.42 0.41 0.31 0.18 0.15 0.08 0.04 0.01 0.08 0.02 0.01 0.01 0.00 0.01 0.01 0.00 0.00 0.00 0.00 0.00 0.00 0.00 0.00 0.00 0.00 0.00
0.00 0.00 0.00 0.00 0.00 0.00 0.00 0.00 0.00 0.00 0.00 0.00 0.00 0.00 0.00 0.00 0.00 0.00 0.00 0.00 0.00 0.00 0.00 0.01 0.05 0.01 0.11 0.07 0.13 0.04 0.16 0.12 0.24 0.66 1.15 1.84 1.35 1.19 1.18 1.24 1.03 1.16 0.84 0.64 0.88 0.87 0.89 1.16 1.21 1.37 1.43 2.06 0.83 0.99 1.24 0.82 0.60 0.94 0.81 0.45 0.20 0.13 0.13 0.11 0.10 0.12 0.29 0.23 0.22 0.18 0.20 0.55 0.42 0.39 0.21 0.29 0.12 0.19 0.02 0.03 0.01 0.00 0.00 0.00 0.01 0.01 0.00 0.00 0.01 0.00 0.00 0.00 0.00 0.00 0.00 0.00 0.00
0.00 0.00 0.00 0.00 0.00 0.00 0.00 0.00 0.00 0.00 0.00 0.00 0.00 0.00 0.00 0.00 0.00 0.00 0.00 0.00 0.00 0.01 0.00 0.01 0.01 0.12 0.10 0.12 0.18 0.10 0.12 0.16 0.30 0.57 0.90 1.39 1.35 1.38 1.89 1.30 1.28 1.23 1.49 1.27 1.14 0.92 1.15 1.62 2.36 1.27 2.08 1.24 1.17 1.17 1.09 0.48 1.09 0.82 0.93 0.49 0.70 0.53 0.43 0.30 0.24 0.35 0.49 0.60 0.38 0.23 0.50 0.75 0.62 0.31 0.32 0.55 0.21 0.16 0.16 0.02 0.01 0.00 0.00 0.00 0.00 0.01 0.01 0.01 0.01 0.00 0.00 0.00 0.00 0.00 0.00 0.01 0.00
0.00 0.00 0.00 0.00 0.00 0.00 0.00 0.00 0.00 0.00 0.00 0.00 0.00 0.00 0.00 0.00 0.00 0.00 0.02 0.00 0.00 0.01 0.03 0.04 0.07 0.12 0.15 0.12 0.09 0.15 0.12 0.15 0.34 0.72 0.70 1.31 1.26 1.36 1.59 2.15 1.61 1.15 1.34 1.74 2.10 2.16 1.94 2.39 1.99 1.96 1.54 1.48 1.79 1.50 1.31 1.25 1.08 1.02 1.11 1.10 0.77 0.44 0.56 0.42 0.39 0.44 0.56 0.56 0.52 0.57 1.14 1.28 0.97 0.68 0.89 0.38 0.38 0.14 0.19 0.04 0.02 0.01 0.00 0.01 0.00 0.00 0.01 0.01 0.01 0.01 0.02 0.00 0.00 0.00 0.01 0.03 0.02
0.00 0.00 0.00 0.00 0.00 0.00 0.00 0.00 0.00 0.00 0.00 0.00 0.00 0.00 0.00 0.00 0.00 0.00 0.03 0.01 0.00 0.01 0.03 0.06 0.15 0.25 0.17 0.17 0.16 0.19 0.21 0.22 0.34 0.48 1.27 1.37 1.11 0.88 1.28 1.29 1.62 1.45 1.45 1.96 2.72 3.01 2.32 2.25 2.75 2.25 1.88 1.57 1.59 2.02 2.04 1.08 1.06 1.60 0.86 1.03 0.73 0.94 0.66 0.55 0.56 0.69 0.75 0.84 0.97 1.37 2.27 1.15 1.43 1.29 0.86 0.48 0.41 0.26 0.18 0.02 0.01 0.00 0.00 0.01 0.00 0.02 0.02 0.01 0.01 0.02 0.02 0.01 0.01 0.01 0.00 0.01 0.03
0.00 0.00 0.00 0.00 0.00 0.00 0.00 0.00 0.00 0.00 0.00 0.00 0.00 0.00 0.00 0.00 0.00 0.00 0.00 0.03 0.03 0.01 0.02 0.10 0.13 0.23 0.17 0.22 0.17 0.19 0.38 0.34 0.57 0.76 1.31 1.27 1.15 1.53 1.44 0.83 1.33 1.70 2.20 3.00 2.77 2.23 2.55 2.42 1.97 1.97 1.44 1.51 1.66 2.00 1.81 1.09 1.39 1.23 1.79 1.18 1.07 1.24 1.05 0.92 1.53 1.22 1.44 1.39 1.79 2.19 1.57 1.45 1.23 1.07 0.92 0.72 0.63 0.30 0.25 0.20 0.25 0.10 0.09 0.12 0.01 0.09 0.18 0.49 0.11 0.14 0.03 0.01 0.01 0.00 0.00 0.01 0.03
0.00 0.00 0.00 0.00 0.00 0.00 0.00 0.00 0.00 0.00 0.00 0.00 0.00 0.00 0.00 0.00 0.00 0.00 0.00 0.02 0.13 0.07 0.07 0.01 0.02 0.34 0.38 0.15 0.17 0.33 0.41 0.55 0.58 1.21 1.69 1.79 1.76 1.11 1.52 1.47 1.30 1.52 1.06 2.39 2.02 1.65 1.94 1.29 1.56 1.65 2.30 1.83 1.32 1.88 1.23 1.54 1.95 1.99 1.39 1.65 1.66 1.42 1.44 1.23 1.16 1.89 1.87 2.40 1.42 2.30 1.78 1.82 1.47 1.32 1.31 1.18 1.06 0.71 0.59 0.44 0.35 0.40 0.12 0.08 0.07 0.08 0.19 0.45 0.22 0.18 0.05 0.04 0.01 0.00 0.00 0.00 0.01
0.00 0.00 0.00 0.00 0.00 0.00 0.00 0.00 0.00 0.00 0.00 0.00 0.00 0.00 0.00 0.00 0.00 0.00 0.00 0.01 0.09 0.06 0.06 0.07 0.02 0.10 0.31 0.20 0.38 0.51 0.89 0.63 0.72 1.74 2.00 1.92 1.58 1.50 1.55 1.38 1.33 1.58 1.70 1.98 2.14 2.00 1.82 2.62 2.05 1.47 2.65 1.56 1.66 1.31 1.77 1.29 1.39 1.60 1.39 1.72 1.38 1.39 1.88 1.38 0.81 1.55 1.84 1.40 1.62 2.19 1.86 1.64 1.82 1.33 1.63 1.34 1.23 0.68 0.78 0.73 0.68 0.63 0.49 0.52 0.16 0.27 0.41 0.14 0.09 0.21 0.14 0.03 0.02 0.01 0.02 0.01 0.01
0.00 0.00 0.00 0.00 0.00 0.00 0.00 0.00 0.00 0.00 0.00 0.00 0.00 0.00 0.00 0.00 0.00 0.00 0.00 0.00 0.00 0.03 0.07 0.02 0.10 0.11 0.18 0.17 0.35 0.46 0.66 0.72 1.77 2.62 2.69 2.08 1.52 2.30 1.53 1.55 1.23 1.47 1.24 1.36 1.92 1.93 2.69 1.64 1.72 3.15 1.55 1.27 1.35 1.32 1.45 0.71 1.39 1.90 1.57 1.78 1.93 1.83 1.29 1.28 1.48 0.94 1.10 1.16 1.80 1.39 1.63 1.48 1.26 1.20 1.25 1.02 0.84 0.68 1.05 0.90 0.91 1.26 1.14 0.89 0.44 0.83 0.73 0.20 0.15 0.15 0.10 0.01 0.01 0.02 0.01 0.01 0.02
0.00 0.00 0.00 0.00 0.00 0.00 0.00 0.00 0.00 0.00 0.00 0.00 0.00 0.00 0.00 0.00 0.00 0.00 0.02 0.01 0.01 0.03 0.03 0.02 0.37 0.41 0.45 0.36 0.46 0.76 1.11 1.89 2.49 2.32 2.67 2.19 2.08 2.29 1.92 2.00 1.28 0.91 1.09 1.27 1.27 1.67 1.72 2.51 1.86 2.19 1.15 1.10 1.23 0.99 0.86 1.50 1.83 1.78 1.82 1.33 1.14 1.13 1.35 1.54 1.20 0.95 1.15 1.39 1.19 1.20 0.95 1.41 1.63 1.36 1.33 1.11 0.65 0.74 1.03 0.94 0.91 1.00 1.06 0.99 0.82 0.55 0.56 0.63 0.46 0.26 0.10 0.06 0.03 0.02 0.03 0.03 0.02
0.00 0.00 0.00 0.00 0.00 0.00 0.00 0.00 0.00 0.00 0.00 0.00 0.00 0.00 0.00 0.00 0.00 0.02 0.18 0.08 0.04 0.06 0.07 0.31 0.61 0.41 0.72 0.67 0.49 0.58 1.17 2.04 2.21 1.89 1.68 1.46 2.89 2.60 1.80 1.44 1.02 0.87 0.79 1.31 1.25 1.38 1.45 1.53 1.57 1.03 0.86 1.21 1.26 1.20 1.24 0.72 1.14 0.96 1.08 1.13 1.09 1.00 1.00 1.15 0.88 0.73 0.81 1.06 1.24 1.28 1.39 1.35 1.28 1.19 1.11 0.92 0.79 0.70 0.92 0.56 0.68 0.74 0.74 0.70 0.54 0.44 1.12 0.71 0.41 0.18 0.17 0.07 0.03 0.03 0.04 0.07 0.05
0.00 0.00 0.00 0.00 0.00 0.00 0.00 0.00 0.00 0.00 0.00 0.00 0.00 0.00 0.00 0.00 0.00 0.12 0.54 0.49 0.09 0.09 0.24 0.43 0.38 0.30 0.65 0.50 0.70 0.96 1.05 1.48 1.65 1.69 1.61 1.20 2.01 1.73 1.03 1.02 0.74 0.77 0.76 1.00 0.88 1.39 1.79 1.98 1.99 1.20 0.74 0.71 0.87 0.57 0.70 0.95 0.59 0.62 0.53 0.67 0.89 0.67 0.93 0.93 0.91 0.95 1.24 1.53 1.68 1.53 0.89 1.05 1.22 1.10 1.06 0.76 0.63 0.71 1.02 1.03 0.79 0.52 0.57 0.63 0.65 0.74 0.69 0.63 0.48 0.39 0.33 0.11 0.07 0.05 0.09 0.02 0.02
0.00 0.00 0.00 0.00 0.00 0.00 0.00 0.00 0.00 0.00 0.00 0.00 0.00 0.00 0.00 0.00 0.00 0.05 0.14 0.54 0.70 0.50 0.56 1.09 0.25 0.28 0.70 1.19 1.44 1.06 1.43 1.51 1.32 1.29 1.28 1.00 1.58 1.35 1.12 1.12 0.78 1.39 1.98 1.77 1.37 1.51 2.02 1.38 1.52 0.79 1.21 0.63 0.66 0.65 0.65 0.56 0.49 0.43 0.58 1.02 0.81 0.85 0.82 1.30 1.29 1.39 1.70 1.34 1.48 1.06 0.76 1.19 1.32 1.13 1.15 0.92 0.89 0.66 1.06 1.02 0.88 0.70 0.72 0.96 0.94 1.09 0.97 0.57 0.47 0.32 0.30 0.15 0.24 0.28 0.22 0.06 0.03
0.00 0.00 0.00 0.00 0.00 0.00 0.00 0.00 0.00 0.00 0.00 0.00 0.00 0.00 0.00 0.01 0.14 0.06 0.10 0.25 0.82 0.85 0.63 0.37 0.62 0.57 0.75 0.92 0.86 0.81 0.99 1.30 1.36 1.33 1.28 2.02 1.80 1.99 1.39 1.44 1.28 2.12 1.91 2.09 1.91 1.78 1.57 1.57 1.12 0.95 1.07 0.69 0.56 0.63 0.76 0.69 0.61 0.91 1.06 1.11 0.89 0.84 1.05 1.24 1.15 1.21 1.43 1.39 1.65 1.22 1.20 1.61 1.78 1.42 0.92 0.74 0.75 0.77 0.66 1.09 0.83 0.98 0.68 0.99 0.98 0.64 0.42 0.40 0.31 0.14 0.11 0.13 0.35 0.44 0.32 0.30 0.11
0.00 0.00 0.00 0.00 0.00 0.00 0.00 0.00 0.00 0.00 0.00 0.00 0.00 0.02 0.02 0.04 0.06 0.23 0.30 0.34 0.78 0.89 0.55 0.43 0.80 1.29 2.29 1.95 1.25 1.27 1.42 1.88 1.96 2.28 2.53 2.95 2.39 2.43 1.54 1.34 1.22 1.27 1.36 1.83 1.88 2.52 1.79 1.35 0.89 0.56 0.76 0.96 0.90 0.89 0.90 0.74 0.72 1.18 0.98 1.09 0.83 0.67 0.89 1.07 1.17 1.46 1.47 1.22 1.64 1.42 1.32 1.94 1.47 1.14 1.47 1.42 1.07 1.17 0.79 0.69 1.12 1.13 0.81 1.11 1.02 0.65 0.86 0.49 0.30 0.41 0.21 0.12 0.36 0.47 0.61 0.29 0.32
0.00 0.00 0.00 0.00 0.00 0.00 0.00 0.00 0.00 0.00 0.00 0.00 0.00 0.04 0.09 0.16 0.17 0.32 0.34 0.50 0.37 0.74 1.38 1.69 1.60 2.36 1.31 1.24 1.46 1.54 1.68 1.71 2.70 2.29 1.63 1.76 4.36 2.61 2.49 1.78 1.86 1.88 1.74 1.26 2.39 2.13 1.23 0.85 0.89 0.68 0.69 0.99 0.89 0.81 0.66 1.05 1.13 0.43 0.85 1.04 0.66 0.66 0.87 1.17 0.96 1.23 1.48 1.22 1.07 1.83 1.64 1.85 1.45 1.55 1.24 0.86 1.03 0.62 0.60 1.04 1.27 0.90 1.05 0.94 1.14 1.03 0.61 0.64 0.60 0.43 0.25 0.28 0.36 0.65 0.54 0.39 0.31
0.00 0.00 0.00 0.00 0.00 0.00 0.00 0.00 0.00 0.00 0.00 0.00 0.00 0.02 0.20 0.09 0.34 0.32 0.24 0.29 0.59 0.46 0.79 1.01 1.74 2.02 1.73 1.38 1.44 1.51 2.40 1.48 1.16 1.49 2.19 2.74 2.90 2.97 2.18 1.73 1.98 2.26 1.72 1.57 2.38 2.93 1.45 1.01 1.14 1.21 1.29 1.01 0.93 0.65 0.39 0.86 0.82 0.71 0.83 0.83 0.63 0.72 0.81 1.18 1.14 1.21 1.48 1.42 1.50 1.47 1.74 1.52 1.70 1.16 0.98 1.49 0.72 0.67 0.62 0.76 1.05 1.19 0.73 0.79 1.15 1.39 0.69 1.07 0.74 0.89 0.74 0.49 0.35 0.70 0.81 0.86 0.74
0.00 0.00 0.00 0.00 0.00 0.00 0.00 0.00 0.00 0.00 0.00 0.00 0.00 0.04 0.03 0.26 0.24 0.23 0.23 0.35 0.21 0.30 0.86 1.06 1.88 1.59 1.83 1.48 0.92 0.91 0.61 0.64 1.07 1.33 1.68 2.79 1.99 2.64 2.61 2.26 1.55 1.37 1.28 1.27 1.30 2.04 1.45 1.63 1.55 1.78 1.29 1.42 0.63 0.80 0.59 0.48 0.84 0.75 1.09 0.97 0.54 0.76 0.79 0.95 0.89 1.00 0.96 1.12 1.19 1.14 1.54 1.33 0.87 1.35 1.32 1.14 0.92 0.81 0.49 0.56 0.78 1.22 1.01 0.72 1.18 0.73 0.85 0.65 0.91 0.58 0.57 0.50 0.65 0.75 0.78 0.63 1.06
0.00 0.00 0.00 0.00 0.00 0.00 0.00 0.00 0.00 0.00 0.00 0.00 0.00 0.00 0.02 0.05 0.12 0.12 0.25 0.21 0.25 0.76 1.52 1.66 1.74 1.22 0.97 1.05 0.71 0.64 0.45 0.59 1.05 1.34 1.48 2.01 1.92 1.98 2.37 2.16 2.02 1.93 1.59 1.49 1.52 2.43 1.76 1.43 2.06 1.75 1.67 0.79 0.59 0.89 1.09 1.42 1.20 1.47 1.10 0.70 0.60 0.71 0.71 0.81 0.90 1.06 1.26 1.66 1.78 1.28 0.97 0.83 0.92 0.75 0.68 0.73 1.12 0.67 0.76 0.97 0.77 2.28 1.56 0.99 0.79 0.86 0.73 0.69 1.01 0.70 0.53 0.54 0.64 0.73 0.69 0.94 1.06
0.00 0.00 0.00 0.00 0.00 0.00 0.00 0.00 0.00 0.00 0.00 0.00 0.00 0.02 0.01 0.05 0.08 0.20 0.33 0.74 1.39 0.65 1.31 0.36 0.25 0.25 0.77 0.75 0.81 0.83 0.80 0.46 0.55 0.64 1.26 1.56 2.08 2.03 2.42 2.42 3.35 2.95 1.72 1.70 1.71 1.11 1.23 1.52 1.60 2.32 1.17 0.85 1.03 1.92 1.51 1.66 1.43 1.45 1.28 0.81 0.56 0.64 0.82 0.87 1.15 1.25 1.23 1.39 1.63 1.40 0.76 0.60 0.49 0.44 0.62 0.68 0.66 0.82 0.73 0.68 0.72 0.96 1.20 1.09 1.09 1.06 1.33 0.88 0.80 0.63 0.65 0.44 0.56 0.72 0.66 0.78 0.95
0.00 0.01 0.00 0.00 0.00 0.00 0.00 0.00 0.00 0.00 0.00 0.00 0.03 0.06 0.06 0.06 0.14 0.53 1.52 1.31 1.16 1.46 1.28 0.38 0.60 0.52 0.53 0.53 0.88 1.35 1.01 0.96 0.63 1.03 1.07 1.29 1.75 2.84 2.61 2.59 1.52 1.87 2.33 1.95 1.28 1.53 1.07 1.03 1.44 1.12 2.04 1.22 1.00 2.45 1.49 1.59 0.87 0.80 0.76 0.74 0.92 1.09 1.53 1.14 1.14 1.09 1.27 0.79 1.20 1.09 1.10 0.62 0.93 0.68 0.32 0.61 0.56 0.89 0.54 0.87 0.53 0.53 1.18 1.19 1.37 0.96 0.82 0.98 0.97 1.04 0.77 0.94 0.76 0.69 0.61 1.18 0.95
0.00 0.00 0.00 0.00 0.00 0.00 0.00 0.00 0.00 0.00 0.00 0.00 0.00 0.03 0.05 0.07 0.14 0.61 1.50 2.50 1.18 0.97 0.25 0.17 0.34 0.28 0.41 0.64 0.75 0.70 0.71 0.90 0.76 0.92 0.89 2.16 2.94 2.02 2.37 2.17 1.77 1.85 1.39 1.56 1.93 1.55 1.25 1.63 1.04 1.30 1.51 1.32 1.65 1.75 1.32 0.84 0.75 0.75 0.44 0.74 0.88 0.71 0.64 0.89 0.86 1.06 1.05 1.30 0.94 0.92 0.72 0.46 0.58 1.37 1.14 1.18 0.90 0.63 0.53 0.82 0.61 0.62 0.60 0.52 0.77 0.98 0.92 1.06 1.53 1.14 1.13 1.20 1.04 1.28 0.87 0.55 1.47
0.00 0.00 0.00 0.00 0.00 0.00 0.00 0.00 0.00 0.00 0.00 0.01 0.01 0.01 0.06 0.05 0.12 0.52 0.45 2.44 1.50 1.29 0.78 0.38 0.64 1.17 0.68 0.45 0.49 0.40 0.68 0.99 0.92 0.84 1.68 2.17 1.63 1.53 2.46 2.08 2.00 1.43 1.89 1.88 1.77 1.43 1.64 1.28 1.10 1.46 1.02 0.97 1.17 1.48 1.22 0.49 0.78 0.59 0.65 0.71 1.08 1.11 1.11 1.21 0.75 0.89 1.04 1.44 1.14 1.21 0.98 1.14 1.09 0.55 0.90 0.64 0.47 0.65 0.79 0.48 0.53 0.61 0.95 0.81 0.94 0.76 0.68 0.98 0.97 0.72 0.93 1.03 1.05 1.15 0.81 0.57 0.87
0.00 0.00 0.00 0.00 0.00 0.00 0.00 0.00 0.00 0.00 0.00 0.02 0.02 0.03 0.08 0.11 0.13 0.85 0.43 0.40 1.75 1.41 0.44 0.73 1.35 0.94 1.87 1.76 1.51 1.36 1.04 1.17 1.34 1.47 0.99 1.96 2.95 2.16 2.14 1.74 1.26 1.58 2.18 1.56 1.65 1.33 0.98 1.40 1.62 1.64 1.17 1.21 0.88 1.50 1.22 1.23 1.17 1.42 1.57 1.47 1.10 1.48 1.27 1.31 1.20 1.65 1.74 1.11 1.12 1.08 0.73 0.54 0.51 0.79 0.59 0.79 0.71 0.63 0.80 0.56 0.51 1.38 1.16 0.81 0.96 0.93 0.74 1.10 0.94 0.93 1.08 0.81 1.05 0.94 0.86 0.97 1.06
0.00 0.00 0.00 0.00 0.00 0.01 0.03 0.00 0.00 0.00 0.00 0.01 0.01 0.03 0.14 0.16 0.30 0.29 0.34 0.37 0.38 1.20 0.72 0.71 1.07 1.03 0.64 1.26 1.08 0.83 1.02 0.89 0.85 0.70 1.07 0.81 1.43 1.47 1.21 1.54 2.02 2.22 1.48 2.30 1.56 1.87 1.73 1.94 1.44 1.15 1.21 0.81 0.69 1.05 0.94 0.99 1.44 2.70 1.35 1.60 1.64 1.21 0.83 0.94 1.58 1.44 1.21 1.56 0.90 0.74 0.59 0.52 0.62 0.56 0.47 0.67 0.35 0.56 0.74 0.84 0.93 1.37 1.88 0.99 0.87 0.86 0.79 0.77 0.69 0.73 1.02 1.09 1.81 1.34 0.36 0.55 1.23
0.00 0.00 0.00 0.00 0.01 0.00 0.00 0.04 0.00 0.00 0.00 0.00 0.02 0.06 0.22 0.24 0.36 0.41 0.40 0.40 0.30 0.88 0.74 0.59 0.42 0.79 0.80 1.12 0.86 0.81 0.64 0.79 0.65 0.69 0.53 0.81 1.88 1.24 1.11 1.75 1.81 1.67 2.16 2.09 2.20 2.14 2.39 1.53 1.16 0.93 0.89 0.70 0.67 0.42 0.81 0.91 1.15 1.17 1.00 0.96 1.30 1.85 1.37 1.60 1.31 2.26 1.10 0.73 0.99 0.95 0.33 0.38 0.57 0.56 0.67 0.85 0.60 0.45 0.48 0.70 0.87 0.74 1.14 0.95 0.83 0.75 0.57 0.56 0.61 0.79 1.33 1.04 0.42 0.79 0.86 1.58 1.30
0.00 0.00 0.00 0.00 0.00 0.01 0.00 0.00 0.00 0.01 0.02 0.02 0.02 0.06 0.33 0.35 0.53 0.22 0.31 0.34 0.39 0.49 0.52 0.87 1.01 0.61 0.67 0.75 0.82 0.76 0.72 0.42 0.48 0.49 0.32 0.66 0.84 0.88 1.57 2.37 2.01 1.98 1.90 2.20 2.30 2.57 2.17 1.58 1.17 1.08 0.97 0.59 0.50 0.52 0.80 1.60 1.19 0.93 0.85 0.73 0.83 0.94 0.97 0.91 0.50 0.79 0.66 0.91 0.30 0.22 0.36 0.35 0.55 0.44 0.34 0.63 0.98 0.25 0.31 0.56 0.76 0.70 1.39 1.15 0.98 0.95 0.98 1.24 0.99 0.86 0.69 1.43 1.24 0.68 0.69 1.12 0.87
0.00 0.01 0.00 0.00 0.00 0.00 0.00 0.01 0.00 0.01 0.02 0.07 0.00 0.04 0.21 0.21 0.34 0.35 0.37 0.19 0.27 0.53 0.45 0.47 1.22 0.62 0.32 0.40 0.51 0.96 0.76 0.60 0.59 1.08 0.81 0.96 1.43 1.35 2.01 2.06 1.72 1.87 1.33 2.11 2.60 2.88 2.17 1.40 1.15 0.73 0.35 0.66 0.98 0.64 0.62 1.27 1.09 0.97 0.55 0.61 0.69 0.97 0.60 0.72 0.85 0.82 0.68 0.68 0.43 0.22 0.23 0.56 0.60 0.51 0.45 0.36 0.51 0.31 0.35 0.58 0.81 0.90 1.04 0.88 0.98 1.60 1.79 1.39 0.73 0.78 0.64 1.33 1.15 1.27 1.44 1.33 1.21
0.01 0.01 0.00 0.00 0.00 0.00 0.00 0.01 0.00 0.03 0.00 0.01 0.00 0.03 0.24 0.28 0.18 0.17 0.38 0.39 0.36 0.53 0.39 0.33 0.15 0.92 0.53 0.55 1.03 0.77 0.52 0.30 0.28 0.32 0.38 0.81 1.20 1.19 1.90 1.20 2.28 1.80 2.13 2.55 2.89 2.91 2.34 1.58 0.98 0.56 0.90 1.74 0.66 0.45 0.64 0.65 0.78 1.04 0.94 0.87 0.61 0.55 0.69 0.67 0.91 0.60 0.40 0.98 0.33 0.39 0.38 0.39 0.34 0.31 0.35 0.37 0.64 0.59 0.43 0.56 0.73 0.99 1.02 1.08 0.73 0.62 0.99 0.95 0.64 1.43 1.29 1.59 1.76 1.58 1.33 1.24 1.15
0.00 0.00 0.00 0.00 0.00 0.00 0.00 0.01 0.01 0.02 0.04 0.07 0.01 0.03 0.14 0.20 0.26 0.27 0.34 0.65 0.47 0.63 0.37 0.25 0.24 0.29 0.58 1.18 1.12 0.75 0.60 0.70 0.61 0.31 0.76 2.46 1.29 0.76 1.40 2.75 2.20 2.69 2.26 2.89 3.09 2.35 2.43 1.69 1.32 1.66 1.94 0.78 0.62 0.66 0.80 0.98 0.71 0.76 0.91 0.79 0.49 0.58 0.58 0.58 0.56 0.62 0.58 0.39 0.41 0.32 0.68 0.73 0.65 0.48 0.47 0.65 1.09 1.11 0.69 0.57 0.69 1.06 1.30 1.15 0.46 0.67 1.01 0.98 0.79 0.74 0.77 0.93 0.93 1.08 1.66 0.91 1.00
0.00 0.00 0.00 0.00 0.00 0.00 0.00 0.02 0.00 0.09 0.02 0.07 0.04 0.08 0.05 0.33 0.19 0.40 0.42 0.26 0.30 0.26 0.21 0.26 0.28 0.26 0.39 0.72 0.96 0.58 0.43 0.39 0.59 0.71 0.72 0.78 0.71 1.19 1.51 1.83 2.96 2.48 2.78 2.76 1.83 2.54 2.42 2.01 1.97 0.82 0.73 1.03 1.27 1.25 1.43 1.38 1.06 1.30 1.14 1.37 0.53 0.50 0.34 0.60 0.56 0.38 0.31 0.25 0.28 0.50 0.72 0.81 0.30 0.40 0.68 1.04 1.34 0.54 0.66 0.92 1.27 1.49 1.33 0.67 0.79 0.75 0.70 0.46 0.77 0.81 0.83 0.79 1.08 1.73 1.29 1.19 1.00
0.00 0.00 0.00 0.00 0.00 0.01 0.01 0.01 0.02 0.11 0.05 0.02 0.01 0.05 0.00 0.27 0.25 0.20 0.29 0.23 0.13 0.14 0.19 0.28 0.29 0.31 0.33 0.62 0.55 0.47 0.65 0.30 0.38 0.33 0.49 0.57 1.04 1.12 1.10 0.94 1.49 1.74 2.19 1.32 1.69 1.90 1.29 1.49 1.22 1.09 0.81 1.01 1.64 1.95 1.32 0.92 1.26 1.69 1.42 0.91 0.79 0.28 0.22 0.20 0.38 0.21 0.13 0.14 0.26 0.32 0.80 0.30 0.50 0.52 0.55 0.87 0.77 1.00 0.74 0.48 0.60 1.20 1.56 1.29 1.46 1.47 0.88 0.47 0.52 0.65 0.69 0.77 0.81 1.37 1.10 1.23 1.16
0.00 0.00 0.01 0.00 0.03 0.03 0.03 0.03 0.02 0.09 0.00 0.02 0.03 0.03 0.05 0.17 0.49 0.44 0.15 0.19 0.11 0.11 0.12 0.20 0.24 0.17 0.21 0.32 0.41 0.45 0.51 0.30 0.34 0.37 0.39 0.51 0.97 0.72 0.47 0.65 1.30 2.22 1.90 1.34 1.38 2.00 1.69 1.34 1.21 2.02 1.80 1.23 1.41 1.46 1.14 1.98 1.77 1.29 1.10 0.68 0.65 0.52 0.17 0.15 0.08 0.09 0.09 0.11 0.19 0.19 0.52 1.05 1.22 0.69 0.59 0.53 0.61 0.59 0.40 0.36 0.37 0.60 0.71 0.86 0.96 0.90 0.85 0.82 0.50 0.47 0.51 0.47 0.48 1.13 0.95 0.59 0.69
0.00 0.00 0.01 0.17 0.18 0.01 0.15 0.04 0.07 0.00 0.01 0.04 0.02 0.02 0.10 0.05 0.17 0.37 0.10 0.10 0.06 0.06 0.09 0.16 0.15 0.13 0.13 0.23 0.17 0.24 0.19 0.32 0.29 0.47 0.41 0.62 0.53 0.51 0.27 0.57 1.25 2.35 1.09 1.35 2.51 2.60 1.53 2.14 1.86 1.50 1.05 0.93 0.91 2.10 2.21 2.19 1.58 1.51 1.16 0.55 0.38 0.28 0.28 0.12 0.12 0.11 0.12 0.14 0.17 0.24 0.40 0.60 0.97 0.74 0.25 0.36 0.54 0.69 0.75 0.40 0.52 0.87 0.59 0.55 0.58 0.47 0.58 0.46 0.29 0.34 0.28 0.22 0.43 0.50 0.59 0.51 0.53
0.00 0.01 0.09 0.05 0.12 0.05 0.02 0.07 0.02 0.07 0.02 0.03 0.03 0.07 0.10 0.44 0.41 0.27 0.18 0.14 0.11 0.07 0.11 0.09 0.11 0.16 0.17 0.20 0.16 0.23 0.20 0.23 0.40 0.51 0.44 0.83 0.67 0.62 0.44 0.60 0.95 1.35 1.29 1.66 2.51 2.55 2.19 2.05 1.65 1.22 1.00 0.99 1.80 2.49 2.36 2.10 1.61 1.85 1.08 0.85 0.40 0.29 0.29 0.23 0.48 0.14 0.17 0.22 0.45 0.57 0.36 1.00 0.91 0.46 0.54 0.46 0.80 0.78 0.75 0.61 0.36 0.30 0.29 0.35 0.32 0.28 0.43 0.31 0.22 0.28 0.35 0.38 0.34 0.29 0.52 0.50 0.57
0.00 0.00 0.01 0.07 0.10 0.05 0.02 0.05 0.09 0.02 0.12 0.08 0.04 0.02 0.13 0.16 1.93 0.15 0.12 0.11 0.02 0.04 0.11 0.07 0.10 0.17 0.14 0.21 0.11 0.19 0.49 0.30 0.22 0.55 0.35 0.81 1.38 1.02 1.05 0.92 1.20 1.47 1.27 2.27 2.40 1.59 2.37 1.51 1.94 1.41 1.89 1.40 1.80 2.41 1.98 2.78 1.76 0.99 0.62 0.57 0.66 0.40 0.46 0.54 0.40 0.25 0.35 0.43 0.47 0.59 0.69 0.71 0.54 0.54 0.76 0.81 1.02 0.74 0.68 0.63 0.40 0.23 0.19 0.16 0.20 0.23 0.40 0.29 0.33 0.28 0.64 0.67 0.90 0.69 0.81 0.94 0.49
0.00 0.01 0.01 0.04 0.04 0.01 0.07 0.22 0.05 0.14 0.08 0.03 0.10 0.09 0.34 0.81 1.57 0.47 0.16 0.06 0.06 0.06 0.08 0.07 0.17 0.15 0.13 0.22 0.30 0.27 0.44 0.58 0.61 0.75 1.28 1.14 1.10 0.94 0.84 1.23 1.64 1.58 2.25 1.65 1.59 1.26 2.01 1.66 2.28 2.59 2.19 2.87 2.73 1.82 2.33 2.72 0.82 0.45 0.56 0.47 0.39 0.33 0.28 0.33 0.32 0.26 0.19 0.24 0.29 0.76 0.43 0.71 1.16 0.68 0.99 1.15 0.72 0.65 0.51 0.44 0.38 0.32 0.27 0.33 0.36 0.25 0.28 0.28 0.37 0.45 0.51 0.61 0.69 0.54 0.61 0.51 0.63
0.07 0.00 0.05 0.01 0.01 0.02 0.01 0.00 0.01 0.00 0.00 0.07 0.02 0.14 0.52 0.41 1.34 0.43 0.49 0.18 0.12 0.08 0.11 0.10 0.10 0.10 0.21 0.30 0.26 0.38 0.52 1.06 1.49 1.67 1.42 0.96 0.90 1.30 1.04 0.93 0.64 0.41 0.77 1.06 1.43 1.60 2.70 2.22 1.23 1.41 1.99 4.02 3.28 3.75 3.21 0.62 0.82 0.27 0.26 0.39 0.30 0.41 0.25 0.18 0.22 0.18 0.22 0.47 0.51 0.48 0.53 0.94 1.55 1.18 0.89 1.14 0.81 0.90 0.52 0.44 0.41 0.37 0.34 0.36 0.42 0.37 0.37 0.27 0.39 0.36 0.49 0.53 0.44 0.70 0.55 0.51 0.34
0.00 0.03 0.04 0.00 0.00 0.03 0.03 0.09 0.08 0.01 0.01 0.10 0.03 0.08 0.48 0.22 0.76 0.90 0.51 0.24 0.28 0.20 0.15 0.08 0.17 0.23 0.32 0.51 0.80 0.92 1.04 1.46 1.24 1.54 1.82 1.42 1.13 0.80 0.54 0.56 0.51 0.54 0.56 1.59 1.59 2.23 1.55 1.22 1.33 3.07 3.96 4.84 4.40 3.32 1.94 1.49 0.72 0.65 0.84 0.75 0.69 0.68 0.44 0.48 0.41 0.21 0.29 0.38 0.50 0.90 0.56 0.79 1.27 1.11 0.97 0.75 0.79 0.54 0.42 0.34 0.34 0.39 0.43 0.38 0.34 0.54 0.59 0.69 0.65 0.45 0.60 0.77 0.77 0.96 0.70 0.63 0.52
0.00 0.06 0.02 0.01 0.08 0.05 0.03 0.00 0.03 0.03 0.04 0.10 0.11 0.25 0.16 0.16 0.81 0.66 0.58 0.24 0.45 0.53 0.40 0.33 0.26 0.41 0.80 0.60 0.81 1.15 1.62 1.69 1.89 1.81 1.58 1.12 0.73 0.77 0.71 0.53 0.82 0.80 1.22 1.07 0.91 1.00 0.81 0.72 1.73 2.34 2.71 2.09 2.70 2.93 2.07 1.39 1.05 1.23 1.00 1.35 0.78 0.47 0.41 0.36 0.40 0.24 0.47 0.58 0.47 1.00 1.13 1.32 1.16 0.90 0.93 0.64 0.49 0.43 0.44 0.46 0.47 0.46 0.37 0.39 0.46 0.63 0.62 0.79 0.94 0.77 0.88 1.06 0.72 0.61 0.61 0.65 0.69
0.00 0.00 0.00 0.00 0.00 0.13 0.08 0.01 0.20 0.01 0.17 0.03 0.21 0.16 0.26 0.54 0.60 0.19 0.22 0.20 0.26 0.24 0.28 0.41 0.73 0.65 0.94 1.07 1.12 1.20 1.17 1.12 1.18 1.06 1.88 1.67 1.01 0.77 0.72 0.69 1.02 0.80 1.08 0.81 0.75 0.85 1.08 0.84 1.34 2.56 2.94 2.19 3.07 2.38 1.92 1.93 1.58 1.01 0.87 0.57 0.54 0.43 0.19 0.57 0.69 0.64 0.16 0.63 0.63 0.92 0.85 0.90 1.01 0.67 0.67 0.58 0.50 0.50 0.61 0.48 0.40 0.33 0.55 0.53 0.33 0.29 0.73 0.72 0.63 0.54 0.83 0.58 0.39 0.53 0.82 0.53 0.55
0.00 0.00 0.00 0.00 0.01 0.04 0.00 0.10 0.03 0.07 0.08 0.16 0.16 0.19 0.60 0.60 0.11 0.22 0.23 0.17 0.33 0.30 0.26 0.29 0.54 0.87 0.55 0.86 1.18 1.25 1.15 1.06 1.00 1.28 1.71 1.77 1.00 0.57 0.69 0.80 0.71 0.60 0.83 0.59 0.95 0.69 0.59 0.37 0.97 1.83 2.23 1.60 1.74 2.71 1.70 1.47 1.16 0.94 0.39 0.35 0.26 0.28 0.18 0.14 0.68 0.95 1.07 1.56 1.26 0.80 0.68 0.63 0.67 0.61 0.55 0.50 0.44 0.47 0.54 0.53 0.73 0.47 0.74 0.57 0.57 0.49 0.55 0.48 0.54 0.53 0.43 0.47 0.50 0.49 0.54 0.83 0.63
0.01 0.00 0.03 0.01 0.05 0.11 0.09 0.05 0.00 0.08 0.06 0.12 0.12 0.22 0.42 0.63 0.18 0.26 0.49 0.63 0.37 0.54 0.37 0.42 0.77 0.27 0.53 0.62 0.89 0.56 0.72 0.87 1.32 1.52 1.19 1.55 1.76 2.20 1.68 1.05 1.40 1.87 1.95 1.51 0.80 0.35 0.32 0.37 0.81 0.84 0.53 0.71 0.51 0.58 0.83 0.96 0.91 0.90 0.23 0.42 0.56 0.41 0.57 0.27 0.48 1.12 1.70 0.85 0.30 0.37 0.38 0.44 0.43 0.44 0.36 0.43 0.42 0.46 0.39 0.40 0.36 0.45 0.22 0.30 0.34 0.45 0.33 0.57 0.35 0.50 0.62 0.27 0.53 0.28 0.68 0.79 0.52